CW0617 Weather Reports


time (UTC)temp
C
wind
direction
speed
KPH
gust
KPH
rain 1hr
cm
rain 24hr
cm
rain mn
cm
humidity
%
barometer
mb
20260906165705 24 92 9.7 19.3 0.00 0.00 0.00 71 1022.7
20260906165204 24 98 6.4 19.3 0.00 0.00 0.00 71 1022.7
20260906164704 23 88 9.7 19.3 0.00 0.00 0.00 72 1022.8
20260906164204 23 118 3.2 16.1 0.00 0.00 0.00 73 1022.9
20260906163704 23 102 4.8 20.9 0.00 0.00 0.00 72 1022.8
20260906163204 23 74 9.7 20.9 0.00 0.00 0.00 71 1022.8
20260906162704 23 100 9.7 16.1 0.00 0.00 0.00 72 1022.8
20260906162204 23 87 3.2 19.3 0.00 0.00 0.00 74 1022.9
20260906161704 23 115 6.4 19.3 0.00 0.00 0.00 73 1022.9
20260906161204 23 127 9.7 19.3 0.00 0.00 0.00 75 1022.9
20260906160704 23 88 3.2 19.3 0.00 0.00 0.00 75 1023.0
20260906160204 23 103 11.3 19.3 0.00 0.00 0.00 75 1023.0
20260906155704 23 65 8.0 16.1 0.00 0.00 0.00 78 1022.8
20260906155204 23 57 9.7 16.1 0.00 0.00 0.00 77 1022.9
20260906154704 23 75 8.0 16.1 0.00 0.00 0.00 77 1022.8
20260906154204 22 82 4.8 14.5 0.00 0.00 0.00 77 1022.8
20260906153704 22 92 4.8 14.5 0.00 0.00 0.00 79 1022.8
20260906152704 22 85 8.0 16.1 0.00 0.00 0.00 80 1022.7
20260906152204 22 49 9.7 16.1 0.00 0.00 0.00 80 1022.6
20260906151704 22 62 4.8 16.1 0.00 0.00 0.00 80 1022.7
20260906151204 22 78 9.7 19.3 0.00 0.00 0.00 80 1022.6
20260906150704 21 91 9.7 19.3 0.00 0.00 0.00 80 1022.7
20260906150204 21 56 8.0 19.3 0.00 0.00 0.00 81 1022.8
20260906145705 21 71 8.0 19.3 0.00 0.00 0.00 82 1022.8
20260906145204 21 69 14.5 19.3 0.00 0.00 0.00 82 1022.7
20260906144704 21 86 8.0 16.1 0.00 0.00 0.00 83 1022.6
20260906144204 21 85 8.0 19.3 0.00 0.00 0.00 83 1022.6
20260906143704 21 71 8.0 19.3 0.00 0.00 0.00 84 1022.7
20260906143204 21 93 9.7 16.1 0.00 0.00 0.00 85 1022.7
20260906142203 20 40 4.8 14.5 0.00 0.00 0.00 87 1022.5
20260906141703 20 56 8.0 14.5 0.00 0.00 0.00 86 1022.4
20260906141204 20 56 8.0 14.5 0.00 0.00 0.00 87 1022.4
20260906140704 20 58 8.0 14.5 0.00 0.00 0.00 86 1022.5
20260906140204 20 63 4.8 16.1 0.00 0.00 0.00 87 1022.6
20260906135704 19 88 8.0 19.3 0.00 0.00 0.00 87 1022.7
20260906134704 19 90 6.4 14.5 0.00 0.00 0.00 89 1022.7
20260906134204 18 105 4.8 16.1 0.00 0.00 0.00 89 1022.7
20260906133704 18 66 8.0 16.1 0.00 0.00 0.00 89 1022.7
20260906133204 18 78 9.7 19.3 0.00 0.00 0.00 90 1022.7
20260906132705 18 85 6.4 19.3 0.00 0.00 0.00 90 1022.8
20260906132204 18 77 6.4 16.1 0.00 0.00 0.00 91 1023.0
20260906131703 18 83 6.4 16.1 0.00 0.00 0.00 91 1023.0
20260906131204 18 40 4.8 11.3 0.00 0.00 0.00 91 1023.0
20260906130704 18 55 4.8 9.7 0.00 0.00 0.00 91 1023.0
20260906130204 17 53 6.4 11.3 0.00 0.00 0.00 92 1022.9
20260906125704 17 49 4.8 11.3 0.00 0.00 0.00 93 1022.9
20260906125204 17 73 3.2 9.7 0.00 0.00 0.00 93 1022.8
20260906124704 17 47 4.8 9.7 0.00 0.00 0.00 93 1022.8
20260906124204 17 41 4.8 9.7 0.00 0.00 0.00 93 1022.7
20260906123703 16 44 4.8 8.0 0.00 0.00 0.00 94 1022.6
20260906123204 16 44 4.8 8.0 0.00 0.00 0.00 94 1022.5
20260906122705 16 51 3.2 8.0 0.00 0.00 0.00 94 1022.4
20260906122204 16 60 3.2 8.0 0.00 0.00 0.00 94 1022.4
20260906121704 16 59 4.8 8.0 0.00 0.00 0.00 94 1022.2
20260906121204 16 55 4.8 8.0 0.00 0.00 0.00 94 1022.2
20260906120704 16 52 3.2 4.8 0.00 0.00 0.00 94 1022.3
20260906120204 16 48 3.2 8.0 0.00 0.00 0.00 94 1022.1
20260906115704 16 43 4.8 8.0 0.00 0.00 0.00 93 1022.0
20260906115204 16 56 4.8 8.0 0.00 0.00 0.00 93 1021.9
20260906114704 16 51 4.8 9.7 0.00 0.00 0.00 93 1021.8
20260906114204 16 56 4.8 9.7 0.00 0.00 0.00 93 1021.7
20260906113704 16 49 8.0 9.7 0.00 0.00 0.00 93 1021.7
20260906113204 16 52 6.4 8.0 0.00 0.00 0.00 93 1021.7
20260906112704 16 46 4.8 8.0 0.00 0.00 0.00 93 1021.8
20260906111704 16 50 4.8 11.3 0.00 0.00 0.00 94 1021.7
20260906111204 16 48 4.8 11.3 0.00 0.00 0.00 94 1021.7
20260906110204 16 48 4.8 8.0 0.00 0.00 0.00 93 1021.6
20260906105204 16 56 4.8 8.0 0.00 0.00 0.00 94 1021.4
20260906104704 16 62 4.8 8.0 0.00 0.00 0.00 94 1021.2
20260906104204 16 67 4.8 8.0 0.00 0.00 0.00 94 1021.2
20260906103204 15 49 4.8 8.0 0.00 0.00 0.00 93 1021.4
20260906102204 15 42 4.8 4.8 0.00 0.00 0.00 92 1021.4
20260906101704 16 57 3.2 4.8 0.00 0.00 0.00 93 1021.4
20260906100204 16 57 3.2 4.8 0.00 0.00 0.00 93 1021.3
20260906095204 16 64 3.2 4.8 0.00 0.00 0.00 93 1021.1
20260906094704 16 50 4.8 4.8 0.00 0.00 0.00 93 1021.1
20260906094205 16 46 3.2 4.8 0.00 0.00 0.00 93 1021.2
20260906093204 16 46 3.2 4.8 0.00 0.00 0.00 93 1021.3
20260906092704 16 46 4.8 4.8 0.00 0.00 0.00 93 1021.3
20260906092204 16 57 3.2 4.8 0.00 0.00 0.00 93 1021.2
20260906091204 16 30 4.8 4.8 0.00 0.00 0.00 93 1021.4
20260906090704 16 38 4.8 4.8 0.00 0.00 0.00 93 1021.2
20260906085704 16 38 4.8 4.8 0.00 0.00 0.00 93 1021.2
20260906084704 16 25 4.8 4.8 0.00 0.00 0.00 92 1021.2
20260906084204 17 42 3.2 4.8 0.00 0.00 0.00 93 1021.1
20260906083704 17 42 3.2 4.8 0.00 0.00 0.00 93 1021.1
20260906083204 17 42 3.2 4.8 0.00 0.00 0.00 93 1021.0
20260906082704 17 42 3.2 4.8 0.00 0.00 0.00 93 1020.9
20260906082204 17 42 3.2 4.8 0.00 0.00 0.00 93 1020.8
20260906081704 17 36 3.2 4.8 0.00 0.00 0.00 93 1020.9
20260906081204 17 53 3.2 8.0 0.00 0.00 0.00 94 1021.0
20260906080704 17 38 3.2 8.0 0.00 0.00 0.00 94 1021.0
20260906080204 17 34 3.2 4.8 0.00 0.00 0.00 93 1021.2
20260906075704 17 39 3.2 4.8 0.00 0.00 0.00 94 1021.1
20260906075204 17 39 3.2 4.8 0.00 0.00 0.00 93 1020.9
20260906074704 17 39 3.2 4.8 0.00 0.00 0.00 94 1020.9
20260906074204 17 39 3.2 4.8 0.00 0.00 0.00 93 1021.0
20260906073704 17 39 3.2 4.8 0.00 0.00 0.00 93 1021.0
20260906073204 17 55 3.2 4.8 0.00 0.00 0.00 93 1021.1
20260906072204 17 82 3.2 4.8 0.00 0.00 0.00 93 1020.9
20260906071704 17 84 4.8 9.7 0.00 0.00 0.00 94 1020.8
20260906071204 17 82 3.2 9.7 0.00 0.00 0.00 94 1021.0
20260906070205 17 73 4.8 4.8 0.00 0.00 0.00 94 1021.1
20260906065704 17 76 4.8 4.8 0.00 0.00 0.00 94 1021.1
20260906064704 17 319 1.6 3.2 0.00 0.00 0.00 93 1021.3
20260906064204 17 309 1.6 3.2 0.00 0.00 0.00 93 1021.3
20260906063204 17 309 0.0 4.8 0.00 0.00 0.00 93 1021.2
20260906062204 17 309 3.2 4.8 0.00 0.00 0.00 92 1021.3
20260906061704 17 284 3.2 4.8 0.00 0.00 0.00 92 1021.2
20260906061204 17 194 3.2 4.8 0.00 0.00 0.00 93 1021.1
20260906060704 17 194 3.2 4.8 0.00 0.00 0.00 93 1021.0
20260906055704 17 194 0.0 1.6 0.00 0.00 0.00 92 1020.7
20260906055204 17 194 0.0 3.2 0.00 0.00 0.00 92 1020.7
20260906054704 17 194 1.6 3.2 0.00 0.00 0.00 92 1020.7
20260906054204 17 194 1.6 3.2 0.00 0.00 0.00 92 1020.7
20260906053704 17 194 1.6 3.2 0.00 0.00 0.00 93 1020.8
20260906053204 17 194 1.6 3.2 0.00 0.00 0.00 93 1020.8
20260906052204 17 143 0.0 1.6 0.00 0.00 0.00 92 1020.6
20260906051704 17 143 0.0 3.2 0.00 0.00 0.00 92 1020.5
20260906051204 17 143 0.0 4.8 0.00 0.00 0.00 92 1020.5
20260906050704 17 143 3.2 4.8 0.00 0.00 0.00 92 1020.5
20260906050204 17 139 3.2 4.8 0.00 0.00 0.00 92 1020.6
20260906045705 18 121 1.6 3.2 0.00 0.00 0.00 92 1020.7
20260906045205 18 121 0.0 3.2 0.00 0.00 0.00 92 1020.7
20260906044705 18 121 1.6 3.2 0.00 0.00 0.00 92 1020.6
20260906044204 18 121 1.6 3.2 0.00 0.00 0.00 92 1020.6
20260906043704 18 123 1.6 3.2 0.00 0.00 0.00 92 1020.5
20260906043205 18 121 1.6 4.8 0.00 0.00 0.00 92 1020.5
20260906042705 18 121 1.6 4.8 0.00 0.00 0.00 92 1020.5
20260906042204 18 88 1.6 4.8 0.00 0.00 0.00 92 1020.4
20260906041704 18 88 3.2 4.8 0.00 0.00 0.00 92 1020.4
20260906041204 18 87 3.2 11.3 0.00 0.00 0.00 92 1020.3
20260906040704 18 105 1.6 11.3 0.00 0.00 0.00 92 1020.3
20260906040204 18 81 3.2 11.3 0.00 0.00 0.00 92 1020.2
20260906034704 18 85 3.2 9.7 0.00 0.00 0.00 92 1020.0
20260906034204 18 90 3.2 9.7 0.00 0.00 0.00 92 1019.9
20260906033704 18 89 3.2 8.0 0.00 0.00 0.00 91 1019.7
20260906032704 18 82 3.2 8.0 0.00 0.00 0.00 91 1019.8
20260906032204 18 80 4.8 4.8 0.00 0.00 0.00 91 1019.9
20260906031204 19 84 1.6 4.8 0.00 0.00 0.00 91 1019.9
20260906030704 19 84 3.2 4.8 0.00 0.00 0.00 91 1019.8
20260906024704 19 61 3.2 4.8 0.00 0.00 0.00 91 1019.5
20260906024204 19 61 3.2 4.8 0.00 0.00 0.00 91 1019.5
20260906023203 19 64 3.2 4.8 0.00 0.00 0.00 91 1019.4
20260906022204 19 64 3.2 8.0 0.00 0.00 0.00 90 1019.5
20260906021704 19 56 4.8 8.0 0.00 0.00 0.00 90 1019.3
20260906021204 19 54 4.8 4.8 0.00 0.00 0.00 90 1019.3
20260906020704 19 67 4.8 4.8 0.00 0.00 0.00 90 1019.2
20260906020204 19 84 1.6 4.8 0.00 0.00 0.00 90 1019.2
20260906015704 20 84 1.6 4.8 0.00 0.00 0.00 89 1019.1
20260906015204 20 77 3.2 8.0 0.00 0.00 0.00 89 1019.1
20260906014704 20 76 4.8 8.0 0.00 0.00 0.00 89 1019.0
20260906013704 20 119 1.6 4.8 0.00 0.00 0.00 88 1019.1
20260906013204 20 119 1.6 4.8 0.00 0.00 0.00 88 1019.1
20260906012704 20 119 3.2 4.8 0.00 0.00 0.00 87 1019.0
20260906012204 20 119 1.6 3.2 0.00 0.00 0.00 87 1019.0
20260906011704 20 119 0.0 3.2 0.00 0.00 0.00 86 1019.0
20260906011205 20 119 0.0 3.2 0.00 0.00 0.00 86 1018.8
20260906010704 21 119 1.6 4.8 0.00 0.00 0.00 86 1018.8
20260906010204 21 119 1.6 4.8 0.00 0.00 0.00 85 1018.7
20260906005704 21 97 1.6 4.8 0.00 0.00 0.00 85 1018.7
20260906005204 21 116 1.6 4.8 0.00 0.00 0.00 84 1018.7
20260906004704 21 94 1.6 4.8 0.00 0.00 0.00 84 1018.7
20260906004204 21 118 1.6 4.8 0.00 0.00 0.00 84 1018.6
20260906003204 22 96 3.2 4.8 0.00 0.00 0.00 83 1018.5
20260906002704 22 120 3.2 4.8 0.00 0.00 0.00 83 1018.6
20260906001204 22 91 1.6 4.8 0.00 0.20 0.00 81 1018.7
20260906000704 22 83 1.6 9.7 0.00 0.48 0.00 81 1018.7
20260906000205 22 89 3.2 9.7 0.00 0.48 0.00 80 1018.7
20260905235704 23 76 3.2 8.0 0.00 0.48 0.00 80 1018.8
20260905235204 23 97 3.2 11.3 0.00 0.48 0.00 80 1018.9
20260905234704 23 123 3.2 11.3 0.00 0.48 0.00 80 1018.9
20260905234203 23 107 3.2 11.3 0.00 0.48 0.00 81 1018.9
20260905233704 23 102 4.8 11.3 0.00 0.48 0.00 80 1018.9
20260905232704 23 78 3.2 11.3 0.00 0.48 0.00 80 1019.0
20260905232204 23 101 6.4 11.3 0.00 0.48 0.00 80 1019.0
20260905231704 23 102 4.8 11.3 0.00 0.48 0.00 80 1018.9
20260905231204 23 92 4.8 11.3 0.00 0.48 0.00 79 1018.9
20260905230704 23 108 3.2 11.3 0.00 0.48 0.00 80 1018.9
20260905225704 23 86 6.4 11.3 0.00 0.48 0.00 79 1018.9
20260905225204 23 84 3.2 9.7 0.00 0.48 0.00 78 1019.0
20260905224704 23 51 3.2 9.7 0.00 0.48 0.00 79 1019.1
20260905224204 23 56 3.2 9.7 0.00 0.48 0.00 79 1019.1
20260905223705 23 73 3.2 4.8 0.00 0.48 0.00 80 1019.2
20260905223204 23 50 1.6 12.9 0.00 0.48 0.00 81 1019.1
20260905222704 23 112 3.2 12.9 0.00 0.48 0.00 81 1019.1
20260905222204 23 85 8.0 14.5 0.00 0.48 0.00 80 1019.0
20260905221704 23 120 6.4 14.5 0.00 0.48 0.00 80 1019.1
20260905221204 23 76 3.2 14.5 0.00 0.48 0.00 81 1019.1
20260905220705 23 107 4.8 14.5 0.00 0.48 0.00 80 1019.2
20260905220204 23 95 6.4 14.5 0.00 0.48 0.00 80 1019.2
20260905215704 23 34 6.4 14.5 0.00 0.48 0.00 81 1019.2
20260905215204 23 51 8.0 19.3 0.00 0.48 0.00 80 1019.2
20260905214705 23 83 8.0 19.3 0.00 0.48 0.00 80 1019.2
20260905214204 23 66 8.0 19.3 0.00 0.48 0.00 80 1018.9
20260905213704 23 41 6.4 20.9 0.00 0.48 0.00 79 1019.0
20260905212704 23 60 11.3 20.9 0.00 0.48 0.00 79 1018.9
20260905212204 23 55 11.3 19.3 0.00 0.48 0.00 79 1018.9
20260905211704 23 55 11.3 22.5 0.00 0.48 0.00 79 1018.9
20260905211204 23 55 9.7 22.5 0.00 0.48 0.00 79 1018.8
20260905210705 23 84 12.9 25.7 0.00 0.48 0.00 79 1018.7
20260905210205 23 59 16.1 25.7 0.00 0.48 0.00 78 1018.8
20260905205205 24 66 12.9 24.1 0.00 0.48 0.00 77 1018.8
20260905204704 25 49 9.7 20.9 0.00 0.48 0.00 78 1018.9
20260905204204 25 94 8.0 19.3 0.00 0.48 0.00 78 1019.0
20260905203704 25 66 8.0 20.9 0.00 0.48 0.00 79 1019.1
20260905203204 25 76 12.9 20.9 0.00 0.48 0.00 78 1019.0
20260905202704 25 83 8.0 19.3 0.00 0.48 0.00 79 1019.2
20260905202204 24 61 11.3 19.3 0.00 0.48 0.00 80 1019.2
20260905201704 24 39 11.3 19.3 0.00 0.48 0.00 80 1019.0
20260905201204 24 45 12.9 19.3 0.00 0.48 0.00 81 1018.9
20260905200704 23 61 9.7 19.3 0.00 0.48 0.00 82 1018.9
20260905200204 23 73 8.0 19.3 0.00 0.48 0.00 82 1018.9
20260905195704 23 67 8.0 19.3 0.00 0.48 0.00 81 1019.0
20260905194704 23 61 8.0 14.5 0.00 0.48 0.00 82 1019.1
20260905193204 23 83 8.0 19.3 0.00 0.48 0.00 82 1019.2
20260905192204 23 21 8.0 16.1 0.00 0.48 0.00 82 1019.0
20260905190705 23 34 9.7 16.1 0.00 0.48 0.00 82 1019.2
20260905190205 23 32 8.0 16.1 0.00 0.48 0.00 82 1019.1
20260905185704 23 25 9.7 16.1 0.00 0.48 0.00 82 1019.1
20260905185204 23 55 9.7 16.1 0.00 0.48 0.00 82 1019.1
20260905184704 23 48 4.8 19.3 0.00 0.48 0.00 82 1019.0
20260905184204 23 60 4.8 19.3 0.00 0.48 0.00 82 1019.0
20260905183204 23 26 4.8 19.3 0.00 0.48 0.00 82 1019.1
20260905182704 23 31 8.0 16.1 0.00 0.48 0.00 82 1018.9
20260905182204 23 47 8.0 14.5 0.00 0.48 0.00 81 1019.0
20260905181704 23 46 4.8 12.9 0.00 0.48 0.00 82 1019.1
20260905181204 23 74 4.8 14.5 0.00 0.48 0.00 81 1019.0
20260905180704 23 61 8.0 14.5 0.00 0.48 0.00 82 1019.1
20260905180204 23 32 8.0 12.9 0.00 0.48 0.00 82 1019.1
20260905175704 23 35 6.4 12.9 0.00 0.48 0.00 82 1019.2
20260905175204 23 43 4.8 12.9 0.00 0.48 0.00 81 1019.3
20260905174204 23 23 9.7 14.5 0.00 0.48 0.00 81 1019.4
20260905173703 24 42 9.7 14.5 0.00 0.48 0.00 80 1019.4
20260905173205 24 43 6.4 11.3 0.00 0.48 0.00 80 1019.5
20260905172704 23 52 3.2 11.3 0.00 0.48 0.00 82 1019.5
20260905171204 23 40 3.2 9.7 0.00 0.48 0.00 82 1019.3
20260905170703 23 76 1.6 11.3 0.00 0.48 0.00 83 1019.3
20260905170204 23 92 3.2 11.3 0.00 0.48 0.00 83 1019.3